CZ-6A DEB, 54941

Orbit data source: Space-Track

CZ-6A DEB, 54941 is space debris in SSO originally from a launch on Fri, 11 Nov 2022 UTC launched from the Taiyaun Space Center, China (TSC). Debris objects in space refer to the collection of defunct objects orbiting the Earth. Examples of debris include non-operational satellites, rocket bodies, and fragments generated from explosions, collisions, or faulty payload assembly.

Loading next visibility...
Identifier
54941, 2022-151SE
Orbit
SSO
Country
Flag of CNCN / PRC
Related business
Manufacturer
SAST
Mission
Spacecraft
Bus & Motor
Unknown
Mass
Unknown
Launch date (UTC)
2022-11-11 (4 years ago)
Launch vehicle
Unknown
Launch site
Taiyaun Space Center, China (TSC)
Object type
Payload
Rocket body
Debris
Shape & HBR
Unknown shape, 0.1 m
Radar Cross Section
Small (<0.1 m²)

Expand to show TLE details & history
Last TLE update: 2 days ago

TLE from 2 days ago
0 CZ-6A DEB
1 54941U 22151SE  26235.99361553  .00005557  00000-0  19703-2 0  9997
2 54941  98.7987 256.4798 0038444  73.4503 287.0898 14.34467533193914
Epoch: 2026-08-23T23:50Z
TLE epoch observation values (Epoch: 2026-08-23T23:50:48.381Z)
Latitude
-0.00012°
Longitude
-73.50347°
Altitude
771.78 km
Speed
7.472 km/s
True Right ascension
17h 05m 55s
True Declination
0° 00' 00"
Sunlit
Object was in daylight at epoch
Visualization orbit readout
Latitude
Unknown
Longitude
Unknown
Altitude
Unknown
Speed
Unknown
Apparent Right ascension
Unknown
Apparent Declination
Unknown
Sunlit
N/A
Visualization observer readout
Local Sidereal Time
13:18:57
Azimuth
Unknown
Elevation
Unknown
Doppler factor
Unknown
Orbital elements
Apogee altitude
801.476 km
Perigee altitude
746.484 km
Semi-major axis
7,152.117 km
Eccentricity
0.00384
Inclination
98.7987°
RAAN
256.4798°
Arg. of periapsis
73.4503°
True anomaly
286.66812°
Mean anomaly
287.0898°
Eccentric anomaly
286.87902°
Mean motion
3.58832 °/min
Orbital period
100.33 mins
BSTAR
0.0019703
Loading maneuver chart data...
Computing Atmospheric mass density...
Loading historical data...
Loading historical data...
Loading historical data...
Loading historical data...
Loading historical data...
Loading historical data...
Loading historical data...

Documentation

Showing up to 5 results
|